{"data":{"norad_id":56943,"intl_designator":"2023-084M","name":"NUSAT-40 (C SHOEMAKER)","alt_names":[],"object_type":"PAYLOAD","status":"ACTIVE","operator":null,"country":"ARGN","launch_date":"2023-06-12","launch_site_code":"AFWTR","launch_vehicle":null,"mission":null,"orbit_class":"UNKNOWN","rcs_meters":null,"size_class":null,"mass_kg":null,"dimensions":null,"purposes":[],"wikipedia_slug":null,"has_3d_model":false,"image_url":null,"decayed_at":null,"tle_current":{"epoch":"2026-05-25T04:45:16.259040Z","epoch_age_seconds":68498,"freshness":"FRESH","line1":"1 56943U 23084M   26145.19810485  .00087553  00000+0  68098-3 0  9999","line2":"2 56943  97.4847 289.9631 0002263 304.2447  55.8601 15.71486269165199","mean_motion":15.71486269,"eccentricity":0.0002263,"inclination_deg":97.4847,"raan_deg":289.9631,"arg_perigee_deg":304.2447,"mean_anomaly_deg":55.8601,"bstar":0.00068098,"rev_number":16519,"period_min":91.632999180854,"perigee_km":353.12490750892,"apogee_km":356.17216624291,"semimajor_km":6732.7855368759,"source":"CELESTRAK","updated_at":"2026-05-25T13:37:59.784106Z"}}}